User: anonymous   Login
Location: Unspecified
(0.0000°N, 0.0000°E)
Time: 23:37:47
(UTC+00:00)
Language:

UKube-1 - Orbit

View from above orbital plane
View from above orbital plane
View from above satellite
View from above satellite

Ground track
Ground track

The orbit data is extracted from the following two-line orbital elements,

1 40074U 14037F   18140.43571685  .00000315  00000-0  45222-4 0  9991
2 40074  98.3839 276.2983 0005640  54.9968 305.1776 14.83789207209188
Epoch (UTC): 20 May 2018 10:27:25
Eccentricity: 0.0005640
inclination: 98.3839°
perigee height: 613 km
apogee height: 621 km
right ascension of ascending node: 276.2983°
argument of perigee: 54.9968°
revolutions per day: 14.83789207
mean anomaly at epoch: 305.1776°
orbit number at epoch: 20918

The dashed part of the orbit path shows where the satellite is in the earth's shadow,  

DLR